Date String (YYYY-MM-DD hh:mm:ss) UTC,Instrument flags,Ambient pressure (hPa),Sample flow (lpm),Bypass flow (lpm),Sample temperature (°C),Ambient temperature (°C),ASC tube jacket temperature (°C),LED temperature (°C),Box temperature (°C),Sample RH (%),Span deviation,Mass concentration (μg/m³),Mass concentration (μg/m³),Mass concentration (μg/m³)
DateTimeUTC,F1_M11,P_M11,Q1_M11,Q2_M11,T1_M11,T2_M11,T3_M11,T4_M11,T5_M11,U1_M11,ZSPAN_M11,X0_M11,X2_M11,X1_M11
2023-05-05 05:00:00,,0825.3,4.99,0.00,30.6,29.1,00.0,39.0,32.1,19.3,0000.0,0021.06,0005.23,0002.51
2023-05-05 05:01:00,,0825.3,4.99,0.00,30.6,29.1,00.0,39.0,32.0,19.3,0000.0,0021.71,0005.29,0002.54
2023-05-05 05:02:00,,0825.2,5.00,0.00,30.6,29.1,00.0,39.0,32.0,19.3,0000.0,0020.45,0005.24,0002.52
2023-05-05 05:03:00,,0825.2,5.01,0.00,30.6,29.1,00.0,39.0,32.1,19.4,0000.0,0020.14,0005.24,0002.52
2023-05-05 05:04:00,,0825.2,5.00,0.00,30.6,29.1,00.0,39.0,32.1,19.4,0000.0,0019.75,0005.18,0002.52
2023-05-05 05:05:00,,0825.3,4.99,0.00,30.6,29.1,00.0,39.0,32.0,19.4,0000.0,0019.35,0005.19,0002.54
2023-05-05 05:06:00,,0825.3,4.99,0.00,30.6,29.1,00.0,39.0,32.0,19.4,0000.0,0019.66,0005.16,0002.55
2023-05-05 05:07:00,,0825.3,5.01,0.00,30.6,29.1,00.0,39.0,32.1,19.5,0000.0,0020.09,0005.19,0002.57
2023-05-05 05:08:00,,0825.4,5.00,0.00,30.6,29.1,00.0,39.0,32.1,19.5,0000.0,0020.00,0005.29,0002.60
2023-05-05 05:09:00,,0825.4,4.99,0.00,30.6,29.1,00.0,39.0,32.1,19.5,0000.0,0019.18,0005.28,0002.60
2023-05-05 05:10:00,,0825.4,5.01,0.00,30.6,29.1,00.0,39.0,32.1,19.6,0000.0,0018.92,0005.32,0002.61
2023-05-05 05:11:00,,0825.5,5.00,0.00,30.6,29.1,00.0,39.0,32.1,19.6,0000.0,0018.57,0005.37,0002.63
2023-05-05 05:12:00,,0825.6,4.99,0.00,30.6,29.1,00.0,39.0,32.1,19.6,0000.0,0017.04,0005.31,0002.62
2023-05-05 05:13:00,,0825.6,5.00,0.00,30.6,29.1,00.0,39.0,32.1,19.6,0000.0,0016.82,0005.31,0002.62
2023-05-05 05:14:00,,0825.6,5.00,0.00,30.6,29.1,00.0,39.0,32.1,19.6,0000.0,0016.33,0005.31,0002.63
2023-05-05 05:15:00,,0825.6,5.00,0.00,30.6,29.1,00.0,39.0,32.1,19.6,0000.0,0015.88,0005.29,0002.63
2023-05-05 05:16:00,,0825.7,5.00,0.00,30.6,29.1,00.0,39.0,32.1,19.7,0000.0,0015.84,0005.26,0002.64
2023-05-05 05:17:00,,0825.7,4.99,0.00,30.6,29.1,00.0,39.0,32.2,19.7,0000.0,0015.09,0005.17,0002.65
2023-05-05 05:18:00,,0825.6,4.98,0.00,30.6,29.1,00.0,39.0,32.1,19.7,0000.0,0015.13,0005.13,0002.66
2023-05-05 05:19:00,,0825.7,5.01,0.00,30.6,29.1,00.0,39.0,32.1,19.7,0000.0,0015.71,0005.06,0002.65
2023-05-05 05:20:00,,0825.7,5.01,0.00,30.6,29.1,00.0,39.0,32.1,19.6,0000.0,0016.47,0005.02,0002.64
2023-05-05 05:21:00,,0825.7,5.00,0.00,30.6,29.1,00.0,39.0,32.1,19.6,0000.0,0016.12,0005.03,0002.65
2023-05-05 05:22:00,,0825.6,4.99,0.00,30.6,29.1,00.0,39.0,32.1,19.6,0000.0,0016.16,0005.00,0002.62
2023-05-05 05:23:00,,0825.7,5.00,0.00,30.7,29.1,00.0,39.0,32.1,19.6,0000.0,0016.57,0005.04,0002.62
2023-05-05 05:24:00,,0825.7,5.02,0.00,30.7,29.1,00.0,39.1,32.1,19.6,0000.0,0016.91,0005.08,0002.63
2023-05-05 05:25:00,,0825.7,4.99,0.00,30.7,29.1,00.0,39.1,32.1,19.5,0000.0,0017.29,0005.10,0002.63
2023-05-05 05:26:00,,0825.7,5.00,0.00,30.7,29.1,00.0,39.1,32.1,19.5,0000.0,0018.06,0005.12,0002.64
2023-05-05 05:27:00,,0825.7,5.00,0.00,30.7,29.1,00.0,39.1,32.1,19.5,0000.0,0017.88,0005.00,0002.61
2023-05-05 05:28:00,,0825.7,5.02,0.00,30.7,29.1,00.0,39.1,32.1,19.6,0000.0,0018.02,0005.01,0002.61
2023-05-05 05:29:00,,0825.7,4.99,0.00,30.7,29.1,00.0,39.1,32.1,19.7,0000.0,0017.75,0005.03,0002.60
2023-05-05 05:30:00,,0825.7,4.99,0.00,30.7,29.1,00.0,39.1,32.0,19.7,0000.0,0016.77,0005.02,0002.59
2023-05-05 05:31:00,,0825.8,4.99,0.00,30.7,29.1,00.0,39.1,32.0,19.7,0000.0,0015.92,0005.07,0002.61
2023-05-05 05:32:00,,0825.7,5.01,0.00,30.6,29.1,00.0,39.1,32.1,19.7,0000.0,0015.81,0004.99,0002.60
2023-05-05 05:33:00,,0825.8,4.99,0.00,30.6,29.1,00.0,39.1,32.1,19.7,0000.0,0015.92,0004.98,0002.62
2023-05-05 05:34:00,,0825.7,5.00,0.00,30.6,29.1,00.0,39.1,32.1,19.7,0000.0,0015.33,0004.94,0002.63
2023-05-05 05:35:00,,0825.7,5.00,0.00,30.6,29.1,00.0,39.1,32.1,19.6,0000.0,0015.06,0004.93,0002.65
2023-05-05 05:36:00,,0825.7,5.01,0.00,30.6,29.0,00.0,39.1,32.1,19.6,0000.0,0015.45,0004.88,0002.66
2023-05-05 05:37:00,,0825.7,4.99,0.00,30.6,29.0,00.0,39.0,32.1,19.6,0000.0,0014.86,0004.85,0002.67
2023-05-05 05:38:00,,0825.7,5.00,0.00,30.6,29.0,00.0,39.0,32.1,19.5,0000.0,0014.47,0004.94,0002.67
2023-05-05 05:39:00,,0825.8,5.01,0.00,30.6,29.0,00.0,39.0,32.1,19.5,0000.0,0014.12,0004.92,0002.65
2023-05-05 05:40:00,,0825.7,4.99,0.00,30.6,29.0,00.0,39.0,32.1,19.5,0000.0,0014.16,0004.85,0002.65
2023-05-05 05:41:00,,0825.8,4.99,0.00,30.6,29.0,00.0,39.0,32.1,19.5,0000.0,0014.15,0004.80,0002.64
2023-05-05 05:42:00,,0825.8,5.01,0.00,30.6,29.0,00.0,39.0,32.1,19.5,0000.0,0013.98,0004.75,0002.61
2023-05-05 05:43:00,,0825.8,5.01,0.00,30.6,29.0,00.0,39.0,32.0,19.4,0000.0,0014.13,0004.76,0002.62
2023-05-05 05:44:00,,0825.8,4.99,0.00,30.6,29.0,00.0,39.0,32.1,19.3,0000.0,0014.38,0004.69,0002.61
2023-05-05 05:45:00,,0825.8,5.01,0.00,30.6,29.0,00.0,39.0,32.1,19.2,0000.0,0014.59,0004.60,0002.58
2023-05-05 05:46:00,,0825.9,5.02,0.00,30.6,29.0,00.0,39.0,32.1,19.2,0000.0,0014.75,0004.50,0002.52
2023-05-05 05:47:00,,0825.9,5.00,0.00,30.6,29.0,00.0,39.0,32.0,19.2,0000.0,0013.88,0004.47,0002.49
2023-05-05 05:48:00,,0825.9,5.00,0.00,30.6,29.0,00.0,39.0,32.0,19.1,0000.0,0014.11,0004.43,0002.45
2023-05-05 05:49:00,,0825.9,5.00,0.00,30.6,29.0,00.0,39.0,32.0,19.1,0000.0,0013.78,0004.30,0002.42
2023-05-05 05:50:00,,0825.9,5.00,0.00,30.6,29.0,00.0,39.0,32.1,19.1,0000.0,0013.39,0004.26,0002.39
2023-05-05 05:51:00,,0825.9,5.01,0.00,30.6,29.0,00.0,39.0,32.0,19.0,0000.0,0012.82,0004.22,0002.36
2023-05-05 05:52:00,,0825.8,4.99,0.00,30.6,29.0,00.0,39.0,32.0,19.0,0000.0,0012.60,0004.16,0002.35
2023-05-05 05:53:00,,0825.9,5.01,0.00,30.6,29.0,00.0,39.0,32.0,19.0,0000.0,0012.58,0004.08,0002.33
2023-05-05 05:54:00,,0825.8,5.00,0.00,30.6,29.0,00.0,39.0,32.0,18.9,0000.0,0012.59,0004.01,0002.27
2023-05-05 05:55:00,,0825.9,5.00,0.00,30.6,29.1,00.0,39.0,32.0,18.8,0000.0,0012.01,0003.94,0002.23
2023-05-05 05:56:00,,0825.9,4.99,0.00,30.6,29.1,00.0,39.0,32.0,18.8,0000.0,0011.20,0003.91,0002.19
2023-05-05 05:57:00,,0825.9,5.01,0.00,30.6,29.1,00.0,39.0,32.0,18.8,0000.0,0010.99,0003.89,0002.18
2023-05-05 05:58:00,,0825.9,5.01,0.00,30.6,29.0,00.0,39.0,32.0,18.8,0000.0,0010.72,0003.86,0002.15
2023-05-05 05:59:00,,0825.9,4.99,0.00,30.6,29.0,00.0,39.0,32.0,18.7,0000.0,0009.97,0003.76,0002.13
